{"data":{"norad_id":58772,"intl_designator":"2024-011H","name":"STARLINK-31136","alt_names":[],"object_type":"PAYLOAD","status":"ACTIVE","operator":null,"country":"US","launch_date":"2024-01-14","launch_site_code":"AFWTR","launch_vehicle":null,"mission":null,"orbit_class":"UNKNOWN","rcs_meters":null,"size_class":null,"mass_kg":null,"dimensions":null,"purposes":["comms"],"wikipedia_slug":null,"has_3d_model":false,"image_url":null,"decayed_at":null,"tle_current":{"epoch":"2026-05-25T01:33:01.456416Z","epoch_age_seconds":76353,"freshness":"FRESH","line1":"1 58772U 24011H   26145.06460019  .00001866  00000+0  75135-4 0  9996","line2":"2 58772  53.1607  18.9181 0001244  84.8052 275.3091 15.30196846131958","mean_motion":15.30196846,"eccentricity":0.0001244,"inclination_deg":53.1607,"raan_deg":18.9181,"arg_perigee_deg":84.8052,"mean_anomaly_deg":275.3091,"bstar":7.5135e-5,"rev_number":13195,"period_min":94.105539673815,"perigee_km":474.37192854204,"apogee_km":476.07704487993,"semimajor_km":6853.361486711,"source":"CELESTRAK","updated_at":"2026-05-25T13:38:18.745374Z"}}}